Retour au catalogue

STARLINK-33832

ActifCommunicationsVLEO
NORAD 63637·PAYLOAD·🇺🇸 United States

Lancé Apr 25, 2025 depuis Cape Canaveral Space Force Station

Loading…

Prochains Passages (prochaines 24 heures)

TLE

FraisSource: CelesTrak SupGP

Époque: Sep 15, 2026, 03:19 UTC

1 63637C 25083D   26258.13868056  .00020667  00000+0  74863-3 0  2582
2 63637  43.0025  14.9907 0001519 270.3952 111.6986 15.27564945    16

Suivez STARLINK-33832 en temps réel avec AllMySat

Download on the App Store